Wind_Speed
18 18 18 18 18 18 18 17 17 17 16 16 15 14 15 15 16 18 16 11 9 11 11 15 12 10 11 8 9 6 7 8 4 6 9 14 16 7 3 6 9 7 1 7 24
20 20 20 21 20 20 19 19 19 19 19 18 17 16 15 16 17 14 4 4 6 10 16 17 13 12 10 8 6 12 10 13 7 9 11 13 14 9 4 6 9 10 7 16 25
20 21 21 22 22 22 21 21 20 19 19 19 18 18 16 14 13 5 5 7 4 11 14 13 11 12 11 9 11 11 15 16 13 11 14 15 16 5 6 7 11 15 15 22 25
22 23 23 23 23 23 22 22 22 21 19 17 17 17 14 10 5 5 5 5 2 9 13 14 14 14 10 10 10 14 21 20 22 15 17 14 19 15 13 13 3 11 20 25 27
24 24 24 24 24 22 22 22 21 20 19 17 16 15 11 7 11 11 12 9 10 13 13 12 11 12 13 10 9 14 19 20 19 17 15 18 20 19 21 16 4 10 22 27 26
25 25 25 24 23 22 22 21 19 17 17 15 14 11 6 12 8 8 3 8 7 10 12 15 12 12 15 15 13 17 15 18 18 17 18 17 21 14 19 6 6 13 19 24 26
26 27 26 26 25 23 22 21 18 15 13 12 10 8 7 12 7 5 6 7 7 10 12 13 13 12 5 11 11 14 14 15 17 21 17 17 16 18 21 4 6 10 14 20 25
27 27 26 25 24 22 18 16 17 15 12 10 8 3 6 7 8 9 10 13 8 11 14 15 12 16 14 13 13 13 11 13 8 4 10 7 16 14 8 7 10 11 14 20 25
25 24 24 21 22 20 14 14 14 10 7 6 4 1 0 4 2 2 4 9 5 5 5 6 13 18 14 14 15 14 15 18 9 4 8 8 13 11 7 14 19 13 17 21 25
23 22 23 20 21 15 14 12 7 3 3 3 2 3 1 7 10 12 13 11 6 6 4 10 12 12 14 15 16 18 17 12 11 6 11 16 18 14 17 18 20 16 16 21 27
22 22 22 20 21 15 15 7 5 1 4 4 6 4 6 14 4 4 3 9 10 12 13 14 12 17 21 18 22 21 18 17 13 16 11 18 13 15 18 14 14 12 13 20 24
22 22 21 19 14 14 12 6 7 4 5 3 3 5 8 8 4 3 4 5 11 15 14 10 16 18 17 17 19 20 19 20 19 16 8 14 18 15 16 13 12 10 13 17 21
22 22 20 17 4 12 6 7 9 5 5 1 2 3 7 5 6 4 1 3 8 10 12 18 19 4 12 18 21 20 21 20 20 16 14 17 18 18 9 13 9 10 9 14 21
21 21 18 15 5 9 1 8 10 1 4 4 1 1 7 8 3 2 3 5 5 10 10 11 12 16 18 21 19 23 20 18 20 18 15 6 13 15 13 11 13 11 12 15 19
21 20 17 15 9 3 5 8 5 1 4 4 2 5 11 5 9 5 5 4 8 10 6 14 6 11 16 20 19 23 20 19 16 18 18 20 11 12 10 13 13 12 12 10 15
20 21 16 10 4 1 4 6 1 5 2 1 3 6 7 1 0 7 3 2 3 7 7 12 15 13 18 16 17 17 15 18 14 14 16 18 18 13 13 9 8 9 5 7 8
20 16 9 8 2 3 2 1 5 4 4 3 4 6 3 5 1 7 5 6 8 9 9 13 10 12 12 17 14 14 15 13 14 14 16 18 19 10 10 3 6 7 8 10 11
17 7 7 7 6 4 1 5 5 2 2 1 4 3 2 8 2 7 5 3 8 14 12 9 11 7 9 12 18 16 18 14 18 14 15 9 11 12 9 1 3 5 9 10 10
14 2 5 7 7 4 5 6 3 1 2 5 4 1 2 3 4 5 4 4 7 11 12 10 10 20 8 11 12 16 10 17 19 18 14 15 12 10 9 15 8 9 10 13 15
14 2 3 4 8 3 6 3 1 2 3 3 3 3 4 6 6 6 3 7 8 11 15 7 12 15 10 15 12 13 12 14 12 18 19 14 17 11 10 15 12 13 13 16 16
8 4 5 4 5 6 5 2 2 1 3 3 1 2 2 5 7 7 4 6 12 13 16 13 8 13 16 9 15 10 10 14 17 10 9 14 13 11 8 11 10 12 12 14 15
4 4 5 2 6 2 2 1 1 1 2 2 4 4 4 4 7 6 5 7 15 14 18 10 7 12 17 18 6 3 2 13 10 12 12 14 15 6 4 2 5 8 10 10 10
7 4 4 1 4 3 3 2 3 3 1 2 3 3 1 6 5 4 7 12 13 16 11 12 9 13 15 9 3 1 8 10 11 18 19 14 16 7 3 3 7 10 9 10 8
5 3 2 1 1 5 3 3 4 2 5 3 6 6 6 9 6 7 13 8 15 19 14 7 12 14 13 20 16 12 12 10 2 8 16 18 17 7 6 7 7 7 11 13 12
3 2 2 1 3 3 4 2 5 4 4 5 6 7 6 10 11 14 11 14 15 13 10 8 13 14 19 17 18 18 16 16 11 14 8 17 28 9 5 6 5 4 5 9 12
4 4 2 3 3 6 4 4 6 4 5 5 9 4 8 9 12 14 16 17 19 16 13 14 12 15 18 20 21 18 16 15 14 10 12 13 19 4 7 1 7 11 10 9 8
3 3 3 3 4 5 4 4 3 2 6 10 7 9 11 10 12 21 26 27 23 19 17 14 10 11 15 16 16 14 10 4 6 7 8 10 16 1 4 5 10 12 11 11 12
Wind_Direction
354 351 347 343 339 334 329 325 319 315 313 313 312 313 315 313 311 312 306 270 262 223 206 170 172 179 188 234 242 257 264 271 322 328 347 355 349 19 311 221 207 211 139 141 163
347 345 342 339 336 333 330 325 318 313 310 307 308 310 313 314 316 305 297 247 225 200 186 174 181 180 205 242 233 242 270 291 335 316 319 321 331 344 284 197 217 188 160 153 157
338 336 334 330 327 326 325 320 316 313 310 308 306 305 306 317 316 184 93 74 168 170 181 182 183 188 234 242 241 258 261 299 293 292 308 309 311 334 286 266 228 211 184 168 167
331 328 326 323 321 320 318 313 312 311 311 309 303 301 300 313 297 196 233 339 148 157 179 179 184 200 233 230 237 254 266 269 285 300 300 300 313 301 306 297 329 213 190 180 176
326 324 322 320 318 318 316 312 310 306 304 307 303 299 299 257 255 259 269 272 208 174 193 204 212 238 256 271 254 253 269 275 278 281 278 292 283 289 290 295 227 188 177 186 184
329 332 331 327 320 319 318 317 310 307 302 301 307 297 277 258 252 262 219 144 168 195 218 218 224 249 276 273 269 286 292 282 275 271 269 268 283 287 271 300 204 187 192 191 189
333 334 335 334 329 327 323 319 314 309 304 304 313 300 251 254 268 251 208 186 214 240 246 241 239 242 269 261 266 271 269 273 269 270 272 281 265 257 262 244 259 226 216 201 194
337 338 338 333 326 323 323 314 311 312 310 309 319 303 257 262 278 270 249 254 248 246 246 240 239 244 255 269 264 258 259 275 268 295 289 272 282 277 269 244 280 241 226 210 201
336 336 336 332 330 329 332 319 309 311 310 321 337 260 209 336 316 262 190 198 269 230 219 233 213 229 237 244 257 231 264 275 253 290 291 256 298 298 270 272 275 265 220 215 203
331 333 338 338 336 335 342 334 346 46 359 12 353 232 60 329 293 268 247 238 256 209 199 206 216 224 224 240 247 255 258 241 268 255 283 286 280 282 280 270 271 263 215 216 207
327 331 337 342 342 350 4 16 353 89 29 344 315 306 346 342 12 17 226 208 222 236 247 201 232 233 250 242 261 276 282 276 274 275 264 282 276 275 275 273 256 249 213 219 216
330 333 340 346 347 358 23 59 48 329 307 355 351 316 314 342 315 52 114 200 211 240 237 229 243 257 265 266 259 260 259 260 266 267 252 277 290 297 279 267 271 262 221 217 204
336 336 343 349 4 5 40 36 9 356 256 109 337 326 348 338 329 11 303 299 249 254 247 249 267 271 261 248 248 248 253 261 262 267 262 266 274 266 241 269 275 255 230 212 204
340 336 341 353 16 351 351 346 3 78 246 71 85 70 332 300 224 299 310 287 239 292 307 277 288 271 248 251 253 258 251 243 261 263 263 231 281 286 279 274 270 253 213 208 204
339 335 340 339 322 353 285 336 9 352 243 51 19 316 319 309 337 98 336 242 290 301 270 284 298 278 257 261 262 261 266 258 254 262 265 254 250 268 244 259 253 243 213 218 208
341 333 340 349 17 344 320 336 359 230 145 133 320 342 326 212 40 315 309 256 282 286 252 268 287 254 265 279 268 268 265 258 246 254 252 243 257 259 258 241 248 255 283 334 316
342 338 0 10 323 344 346 330 245 275 154 29 337 332 296 339 244 0 343 41 11 339 346 312 294 240 268 263 255 255 235 239 231 231 248 249 247 249 269 238 339 338 339 327 307
343 350 12 24 25 11 6 240 253 57 30 15 322 285 26 357 38 343 315 311 48 358 316 349 324 3 345 286 280 244 248 254 259 251 259 173 233 250 219 272 145 355 339 328 331
345 322 357 2 2 349 266 246 35 75 353 335 229 313 71 46 306 319 345 349 29 21 359 311 316 315 346 331 273 269 245 262 271 268 269 274 256 225 250 260 261 322 323 334 329
346 296 285 322 344 329 254 9 150 10 319 258 339 334 344 9 325 343 313 66 355 7 343 320 299 301 330 298 250 249 263 237 235 262 266 255 253 248 247 273 287 302 333 340 338
345 272 288 301 334 247 279 47 174 109 290 272 307 282 330 337 328 333 347 328 21 343 335 329 292 305 297 317 331 307 261 278 262 269 280 282 266 266 299 294 307 307 349 347 340
353 257 313 315 246 268 204 7 346 242 190 230 276 283 289 320 309 308 309 324 354 333 325 344 298 295 308 291 325 299 17 316 326 292 281 276 270 75 70 303 323 337 358 360 358
324 288 316 266 268 188 143 221 263 261 280 253 254 248 284 295 298 286 317 318 329 332 330 328 301 307 279 242 261 104 344 348 316 296 279 268 273 69 46 34 11 22 17 37 23
322 267 157 215 319 306 267 223 233 226 274 275 291 259 269 275 265 282 301 305 319 313 337 269 267 274 283 305 319 313 308 308 311 274 294 303 344 101 28 8 7 24 55 69 64
324 54 330 321 150 288 270 311 251 246 223 249 225 247 290 286 288 283 293 311 311 317 301 299 283 284 282 286 285 284 289 295 280 255 268 303 293 30 41 353 45 45 79 69 61
306 302 246 265 263 259 167 223 264 240 260 233 256 316 284 278 289 303 310 305 307 302 299 304 286 287 288 273 269 276 285 289 281 291 260 285 293 57 67 293 72 34 44 44 27
281 292 279 152 210 243 248 277 290 286 244 267 289 299 281 316 324 301 291 283 280 284 280 282 277 292 284 291 285 279 286 322 284 265 306 314 347 127 131 157 68 72 68 62 51
Height
1547 1544 1542 1539 1537 1535 1532 1530 1528 1526 1524 1522 1521 1520 1518 1515 1513 1510 1508 1508 1507 1508 1510 1513 1516 1519 1521 1519 1518 1515 1503 1493 1488 1488 1486 1481 1480 1482 1484 1484 1490 1492 1493 1495 1499
1546 1543 1540 1537 1535 1532 1530 1527 1525 1522 1521 1519 1518 1517 1516 1514 1511 1507 1506 1504 1504 1505 1508 1512 1516 1518 1518 1515 1514 1509 1496 1489 1485 1485 1485 1484 1482 1482 1484 1484 1488 1491 1494 1496 1498
1545 1542 1539 1535 1532 1530 1527 1524 1521 1519 1517 1516 1514 1513 1513 1512 1509 1506 1503 1503 1504 1504 1508 1512 1514 1516 1513 1511 1508 1502 1499 1487 1486 1487 1487 1484 1481 1480 1479 1478 1481 1486 1492 1494 1496
1543 1540 1537 1533 1530 1527 1524 1520 1518 1515 1514 1512 1511 1509 1509 1511 1507 1503 1503 1503 1505 1506 1509 1511 1511 1510 1507 1503 1501 1502 1494 1492 1489 1487 1488 1485 1482 1479 1476 1475 1477 1479 1485 1490 1491
1541 1537 1534 1530 1527 1523 1520 1517 1514 1511 1510 1509 1506 1506 1507 1508 1505 1502 1502 1502 1503 1506 1510 1511 1511 1508 1502 1497 1498 1495 1490 1489 1487 1486 1487 1487 1483 1480 1475 1473 1475 1478 1480 1485 1489
1538 1535 1530 1526 1523 1519 1516 1513 1510 1508 1506 1505 1504 1503 1505 1506 1500 1500 1500 1501 1504 1505 1507 1507 1505 1505 1502 1498 1497 1492 1490 1487 1485 1482 1482 1482 1479 1475 1473 1473 1475 1477 1479 1482 1485
1535 1531 1527 1522 1518 1514 1511 1508 1506 1504 1503 1502 1501 1501 1502 1501 1498 1498 1500 1502 1503 1504 1505 1505 1505 1504 1499 1495 1494 1493 1490 1483 1478 1475 1473 1476 1475 1470 1470 1472 1474 1478 1479 1480 1483
1532 1528 1524 1519 1515 1511 1508 1505 1502 1500 1500 1499 1499 1499 1498 1496 1496 1496 1497 1499 1500 1500 1500 1501 1502 1501 1499 1496 1494 1491 1485 1486 1467 1474 1474 1478 1474 1463 1463 1468 1469 1472 1475 1477 1480
1530 1527 1523 1518 1513 1509 1505 1502 1499 1498 1498 1497 1498 1498 1496 1495 1496 1495 1496 1497 1498 1497 1496 1497 1499 1497 1494 1493 1489 1481 1489 1476 1471 1473 1472 1472 1471 1466 1467 1466 1464 1465 1469 1472 1476
1529 1525 1521 1516 1512 1507 1503 1499 1497 1497 1497 1497 1497 1500 1496 1496 1493 1492 1493 1494 1495 1495 1495 1496 1494 1489 1486 1484 1490 1478 1472 1468 1479 1469 1467 1468 1466 1461 1461 1459 1458 1456 1462 1467 1469
1527 1523 1519 1515 1510 1506 1502 1499 1502 1501 1499 1498 1498 1497 1496 1493 1490 1489 1488 1490 1492 1492 1487 1489 1488 1484 1478 1474 1475 1471 1472 1476 1468 1466 1469 1465 1461 1459 1454 1453 1450 1451 1455 1460 1465
1524 1520 1516 1513 1508 1506 1503 1505 1507 1508 1502 1497 1496 1495 1494 1493 1491 1489 1488 1490 1488 1483 1479 1483 1485 1474 1471 1473 1473 1472 1475 1474 1463 1461 1468 1461 1458 1453 1450 1449 1447 1447 1449 1455 1459
1521 1518 1514 1511 1508 1507 1506 1507 1506 1504 1503 1498 1497 1496 1494 1494 1490 1488 1489 1486 1483 1478 1474 1477 1468 1467 1473 1474 1473 1469 1471 1468 1466 1456 1456 1459 1458 1446 1443 1443 1442 1442 1444 1448 1452
1520 1517 1513 1511 1511 1508 1509 1506 1504 1503 1492 1496 1494 1495 1495 1491 1488 1487 1487 1487 1480 1477 1472 1469 1464 1464 1466 1468 1466 1467 1456 1457 1463 1463 1468 1449 1472 1450 1443 1438 1437 1435 1437 1442 1446
1520 1516 1513 1510 1509 1509 1509 1506 1504 1505 1496 1497 1494 1495 1492 1490 1487 1484 1485 1483 1477 1474 1477 1467 1465 1465 1466 1460 1456 1458 1452 1453 1457 1459 1458 1454 1462 1447 1437 1439 1433 1428 1430 1434 1438
1519 1515 1511 1509 1507 1508 1506 1505 1506 1499 1499 1496 1495 1493 1487 1486 1486 1484 1482 1481 1478 1473 1469 1466 1463 1463 1457 1453 1452 1453 1453 1454 1455 1455 1464 1450 1453 1447 1436 1430 1425 1425 1427 1432 1436
1518 1514 1511 1509 1511 1507 1506 1508 1498 1492 1499 1499 1496 1492 1489 1486 1483 1482 1479 1476 1479 1481 1473 1463 1451 1450 1455 1455 1450 1453 1457 1468 1470 1464 1461 1437 1440 1438 1425 1425 1433 1434 1434 1435 1435
1517 1514 1513 1511 1509 1508 1508 1504 1504 1501 1499 1498 1495 1489 1489 1487 1482 1482 1478 1476 1474 1475 1472 1471 1472 1452 1451 1453 1453 1446 1451 1457 1472 1460 1447 1427 1451 1437 1426 1428 1433 1434 1434 1433 1432
1516 1515 1514 1512 1510 1509 1510 1498 1497 1501 1501 1499 1492 1491 1490 1487 1489 1482 1478 1479 1479 1478 1487 1476 1469 1453 1447 1448 1447 1445 1452 1439 1446 1439 1447 1435 1428 1420 1426 1423 1423 1430 1431 1431 1430
1516 1515 1515 1512 1511 1510 1505 1507 1501 1504 1503 1500 1497 1495 1495 1491 1487 1484 1482 1479 1481 1480 1478 1474 1481 1453 1448 1443 1435 1440 1434 1448 1444 1465 1468 1445 1437 1431 1424 1426 1423 1428 1429 1430 1427
1516 1516 1513 1512 1511 1510 1498 1501 1504 1505 1505 1501 1498 1497 1496 1495 1491 1487 1484 1481 1483 1481 1478 1471 1470 1464 1451 1444 1447 1442 1442 1439 1433 1440 1469 1464 1443 1410 1416 1420 1428 1429 1432 1430 1427
1517 1512 1513 1512 1510 1507 1501 1507 1509 1503 1504 1502 1501 1498 1497 1495 1493 1489 1488 1484 1486 1485 1482 1474 1474 1471 1459 1443 1443 1443 1451 1453 1447 1450 1433 1433 1430 1411 1422 1428 1431 1432 1434 1431 1430
1519 1516 1513 1512 1502 1501 1507 1506 1507 1503 1502 1500 1498 1499 1498 1496 1500 1490 1488 1487 1488 1486 1484 1484 1474 1476 1459 1440 1443 1445 1450 1450 1454 1449 1442 1444 1426 1418 1429 1429 1437 1437 1436 1432 1432
1521 1511 1512 1513 1512 1509 1506 1504 1503 1505 1504 1503 1499 1499 1497 1495 1491 1494 1490 1487 1487 1487 1486 1484 1477 1476 1474 1458 1446 1453 1451 1445 1459 1463 1445 1433 1426 1426 1435 1438 1441 1441 1440 1436 1434
1522 1516 1518 1505 1509 1511 1511 1508 1502 1501 1504 1503 1497 1497 1498 1499 1492 1489 1485 1483 1484 1483 1481 1479 1482 1471 1461 1455 1451 1448 1447 1444 1445 1443 1460 1463 1428 1425 1438 1445 1445 1443 1442 1440 1437
1522 1520 1519 1514 1515 1513 1510 1503 1503 1501 1505 1497 1500 1497 1497 1497 1493 1492 1488 1487 1485 1482 1479 1478 1480 1469 1467 1455 1446 1443 1441 1438 1438 1441 1444 1438 1436 1438 1446 1447 1447 1447 1444 1444 1443
1520 1520 1520 1512 1510 1509 1501 1503 1504 1508 1502 1503 1502 1501 1496 1493 1496 1494 1491 1486 1482 1480 1478 1479 1475 1471 1467 1449 1444 1450 1436 1437 1443 1448 1446 1444 1452 1444 1447 1447 1448 1447 1447 1447 1447